Regional Weather Roundup
Issued by NWS

Home | Current Version | Previous Version | Graphics & Text | Print | Product List | Glossary Off
Versions: 1 2 3 4 5 6 7 8 9 10 11 12 13 14 15 16 17 18 19 20 21 22 23 24 25 26 27 28 29 30 31 32 33 34 35 36 37 38 39 40 41 42 43 44 45 46 47 48 49 50

000
ASUS43 KLOT 230009
RWRIL

ILLINOIS REGIONAL WEATHER ROUNDUP
NATIONAL WEATHER SERVICE CHICAGO/ROMEOVILLE IL
700 PM CDT TUE AUG 22 2017

NOTE: "FAIR" INDICATES FEW OR NO CLOUDS BELOW 12,000 FEET WITH NO
SIGNIFICANT WEATHER AND/OR OBSTRUCTIONS TO VISIBILITY.

* THESE STATIONS ARE NOT UNDER NWS QUALITY CONTROL. THEY ALSO MAY NOT
  REPORT WEATHER SUCH AS PRECIPITATION OR FOG.

ILZ001-002-007-009-015-016-024-230100-
NORTHWEST ILLINOIS

CITY           SKY/WX    TMP DP  RH WIND       PRES   REMARKS
MOLINE         CLEAR     74  50  42 NW15G24   30.01S
6HR MIN TEMP:  74; 6HR MAX TEMP:  80;

STERLING*      CLEAR     73  53  49 NW12      30.00R
SAVANNA*       CLEAR     73  51  45 NW8       30.01R
$$

ILZ003-004-008-010-011-017-018-230100-
NORTH CENTRAL ILLINOIS

CITY           SKY/WX    TMP DP  RH WIND       PRES   REMARKS
ROCKFORD       PTCLDY    72  50  45 NW12      29.99R
6HR MIN TEMP:  72; 6HR MAX TEMP:  79;

FREEPORT*      CLEAR     70  50  49 NW10      30.01S
ROCHELLE*      CLEAR     71  52  50 NW9       29.99R
DE KALB*       CLEAR     70  53  55 NW8       29.98S
PERU*          CLEAR     70  56  61 NW7       29.99S
$$

ILZ005-006-012>014-019>023-230100-
NORTHEAST ILLINOIS

CITY           SKY/WX    TMP DP  RH WIND       PRES   REMARKS
CHICAGO-OHARE  PTCLDY    76  49  38 NW15      29.94R
6HR MIN TEMP:  76; 6HR MAX TEMP:  82;

CHICAGO-MIDWAY PTCLDY    76  51  41 NW15      29.94R
6HR MIN TEMP:  76; 6HR MAX TEMP:  81;

AURORA         CLEAR     70  58  65 NW9       29.97R
6HR MIN TEMP:  70; 6HR MAX TEMP:  77;

LANSING*       CLEAR     75  48  37 NW10      29.93S
JOLIET*        CLEAR     75  56  51 NW6       29.96R
WAUKEGAN       PTCLDY    71  50  47 VRB7G18   29.94R
6HR MIN TEMP:  71; 6HR MAX TEMP:  78;

DUPAGE AIRPORT CLEAR     73  52  47 NW15G22   29.95R
6HR MIN TEMP:  73; 6HR MAX TEMP:  79;

KANKAKEE*      CLEAR     73  55  53 NW12      29.96R
WHEELING       CLEAR     74  50  42 NW13      29.95S
6HR MIN TEMP:  74; 6HR MAX TEMP:  81;

MORRIS*        CLEAR     71  57  61 NW5       29.95S
ROMEOVILLE*    CLEAR     72  50  47 NW12      29.96R
NORTHERLY ISL    N/A     76  51  41 NW13        N/A
$$

LMZ740>746-230100-
SOUTHERN LAKE MICHIGAN

STATION/POSITION SKY/WX   TEMP    WIND        PRES    VSBY  WAVE
                          AIR SEA DIR/SP/G                  HT/PER
                          (F)     (DEG/KT/KT) (MB)    (MI)  (FT/S)
SOUTHERN BUOY              72 71  350/ 14/ 16 1012.6          3/ 5
WILMETTE HARBOR            74 74  310/ 14/ 19   N/A           3/ 4
HARRISON CRIB              76     310/ 17/ 19   N/A
CALUMET HARBOR             76     310/  9/ 12 1013.0R
BURNS HARBOR               75     350/ 17/ 21 1013.5S
MICHIGAN CITY              73     350/ 17/ 20   N/A
MICHIGAN CITY 6N           74 74  360/ 14/ 19   N/A           3/ 4
ST. JOSEPH                 72 73   20/ 12/ 17 1013.3          4/ 5
$$

ILZ025>027-034>036-040-047-049-050-058-095>099-230100-
WEST-CENTRAL ILLINOIS

CITY           SKY/WX    TMP DP  RH WIND       PRES   REMARKS
QUINCY         CLEAR     75  54  47 N14       30.02S
GALESBURG*     CLEAR     71  55  57 NW8       30.03R
MACOMB*        CLEAR     72  58  61 NW7       30.04S
JACKSONVILLE*  CLEAR     74  56  54 N9        30.00S
PITTSFIELD*    CLEAR     74  59  58 NW7       30.03R
$$

ILZ028>032-037-038-041>044-048-051>054-059>061-230100-
CENTRAL ILLINOIS

CITY           SKY/WX    TMP DP  RH WIND       PRES   REMARKS
PONTIAC        MOCLDY    72  60  65 NW8       29.98S
BLOOMINGTON    PTCLDY    73  57  57 N13       30.00R
DECATUR        CLEAR     76  58  53 NW12      29.98R
PEORIA         CLEAR     74  54  49 NW7       30.00R
6HR MIN TEMP:  74; 6HR MAX TEMP:  80;

LACON*         CLEAR     73  56  57 NW6       29.98S
LINCOLN*       CLEAR     75  59  58 NW5       29.99S
SPRINGFIELD    CLEAR     76  59  55 NW10      30.00R
6HR MIN TEMP:  76; 6HR MAX TEMP:  82;

TAYLORVILLE    CLEAR     73  59  62 NW8       29.99S
6HR MIN TEMP:  73; 6HR MAX TEMP:  81;

$$

ILZ033-039-045-046-055>057-062-063-230100-
EAST-CENTRAL ILLINOIS

CITY           SKY/WX    TMP DP  RH WIND       PRES   REMARKS
CHAMPAIGN      CLEAR     74  58  57 NW8       29.98R
RANTOUL*       CLEAR     76  62  63 NW9       29.97R
MATTOON        PTCLDY    74  65  73 N9        29.97R
PARIS*         CLEAR     74  62  64 NW8       29.98R
$$

ILZ079-100>102-230100-
SOUTHWEST ILLINOIS

CITY           SKY/WX    TMP DP  RH WIND       PRES   REMARKS
ALTON          PTCLDY    77  64  65 NW6       30.00R
BELLEVILLE     CLEAR     80  65  60 NW6       30.00R HX  82
CAHOKIA*       PTCLDY    82  62  50 N10       29.99R HX  83
SPARTA*        MOCLDY    79  67  67 N6        30.01R HX  81
$$

ILZ064>066-069>071-074>076-080>082-084>086-088>090-092>094-230100-
SOUTH-CENTRAL ILLINOIS

CITY           SKY/WX    TMP DP  RH WIND       PRES   REMARKS
CARBONDALE     PTCLDY    78  68  71 NW6       29.99R HX  80
6HR MIN TEMP:  77; 6HR MAX TEMP:  82;

CAIRO*         CLEAR     79  70  74 NW7       29.97F HX  82
EFFINGHAM*     CLEAR     77  63  63 NW8       29.99R
MARION         PTCLDY    81  70  69 NW9       29.99R HX  84
CENTRALIA*     CLEAR     80  67  64 NW9       29.98R HX  82
SALEM*         CLEAR     79  66  65 NW5       29.98S HX  81
METROPOLIS*    MOCLDY    81  70  69 N8        29.98S HX  84
$$

ILZ067-068-072-073-078-083-087-091-230100-
SOUTHEAST ILLINOIS

CITY           SKY/WX    TMP DP  RH WIND       PRES   REMARKS
LAWRENCEVILLE  PTCLDY    79  67  66 NW8       29.95R HX  81
FLORA*         CLEAR     79  68  70 NW5       29.97S HX  81
FAIRFIELD*     CLEAR     78  67  68 NW3       29.97R HX  80
HARRISBURG*    PTCLDY    78  70  75 NW6       29.98S HX  80
ROBINSON*      CLEAR     76  67  73 NW6       29.96R
CARMI*         CLEAR     77  70  80 W5        29.96S
$$

ABBREVIATIONS USED IN REMARKS
   TC - TEMPERATURE IN CELSIUS
  WCI - WIND CHILL INDEX
   HX - HEAT INDEX
  VSB - VISIBILITY
$$




USA.gov is the U.S. government's official web portal to all federal, state and local government web resources and services.